This demonstration page uses our WeatherBlox Daily Observations layout. Learn more.

Left ArrowRight Arrow

38.83388, -104.82136

Hourly Observations for January 15, 2021

Temp ( °F °C ) Dew Point ( °F °C ) Humidity (%) Winds ( mph kmh ) Pressure ( in mb ) Visibility ( mi km ) Precip ( " mm )
12:58 am 00:58 Clear 18 -7.8 4 -15.7 53 53 NW 9 15 30.34 1027 10 16 0.00 0.00
1:58 am 01:58 Clear 19 -7.4 2 -16.6 48 48 Calm 30.32 1027 10 16 0.00 0.00
2:58 am 02:58 Clear 18 -7.8 2 -16.8 49 49 SSW 3 6 29.94 1014 10 16 0.00 0.00
3:58 am 03:58 Clear 19 -7.5 2 -16.7 48 48 S 3 6 29.89 1012 10 16 0.00 0.00
4:58 am 04:58 Clear 19 -7.3 1 -17.1 46 46 S 5 7 29.91 1013 10 16 0.00 0.00
5:56 am 05:56 Clear 19 -7 -1 -18.6 39 39 W 3 6 29.93 1014 10 16 0.00 0.00
6:56 am 06:56 Clear 22 -5.6 -4 -19.9 32 32 NNW 6 9 29.93 1014 10 16 0.00 0.00
7:58 am 07:58 Sunny 23 -4.8 -2 -18.7 33 33 Calm 29.94 1014 10 16 0.00 0.00
8:58 am 08:58 Sunny 26 -3.4 -4 -20 27 27 N 3 6 29.94 1014 10 16 0.00 0.00
9:58 am 09:58 Sunny 28 -2.2 -1 -18.6 27 27 NNE 3 6 29.97 1015 10 16 0.00 0.00
10:58 am 10:58 Sunny 28 -2 -1 -18.4 28 28 N 6 9 29.95 1014 10 16 0.00 0.00
11:58 am 11:58 Sunny 31 -0.6 -1 -18.5 25 25 NE 6 9 29.92 1013 10 16 0.00 0.00
12:58 pm 12:58 Sunny 35 1.7 -2 -18.8 20 20 SSE 5 7 29.88 1012 10 16 0.00 0.00
1:58 pm 13:58 Sunny 35 1.9 3 -16.2 25 25 SE 8 13 29.88 1012 10 16 0.00 0.00
2:58 pm 14:58 Sunny 31 -0.5 3 -15.9 30 30 NW 3 6 29.89 1012 10 16 0.00 0.00
4:58 pm 16:58 Sunny 31 -0.4 4 -15.8 30 30 NW 5 7 29.91 1013 10 16 0.00 0.00
5:58 pm 17:58 Clear 30 -1.1 4 -15.4 33 33 SW 3 6 30.13 1020 10 16 0.00 0.00
6:58 pm 18:58 Clear 31 -0.8 4 -15.4 32 32 Calm 29.92 1013 10 16 0.00 0.00
7:58 pm 19:58 Clear 30 -0.9 3 -16 31 31 Calm 29.91 1013 10 16 0.00 0.00
8:58 pm 20:58 Clear 29 -1.8 4 -15.4 35 35 Calm 29.88 1012 10 16 0.00 0.00
9:58 pm 21:58 Clear 29 -1.9 4 -15.5 35 35 Calm 29.85 1011 10 16 0.00 0.00
10:58 pm 22:58 Mostly Cloudy 30 -1.3 3 -16 32 32 Calm 29.82 1010 10 16 0.00 0.00
11:58 pm 23:58 Clear 29 -1.4 4 -15.4 34 34 NW 6 9 29.79 1009 10 16 0.00 0.00

Powered by AerisWeather